Theta_e
292 293 293 294 295 298 300 301 301 302 303 303 302 301 301 301 300 300 300 300 299 298 297 296 294 293 293 291 289 290 290 289 289 289 289 289 290 290 290 290 290 290 289 289 289 290 288 288 288 288 288 288 287 286 286 287 287 286 285 286 285 285 285 285 285 287 292 290 291 289 288 288 289 287 285 285 285 286 285 284 284 283 283 284 284
292 292 292 292 294 298 299 300 301 301 301 302 301 301 301 300 300 300 300 300 300 299 297 296 295 294 291 290 289 289 288 288 287 288 288 289 289 288 289 288 288 288 288 288 287 287 287 287 286 286 287 287 286 286 286 287 285 285 285 284 284 284 283 284 285 285 286 287 288 288 288 286 286 286 285 284 284 284 284 283 283 283 283 283 284
291 292 292 292 294 297 297 299 301 301 301 301 302 301 300 299 299 300 299 298 298 298 296 294 293 291 290 289 289 287 287 288 287 287 288 287 287 287 287 287 287 286 286 287 286 286 286 286 285 285 285 287 286 285 285 284 284 284 284 283 283 283 283 284 284 284 283 283 285 284 283 286 290 282 283 284 283 282 283 283 283 282 282 282 283
291 291 291 292 294 296 297 298 300 300 300 301 301 300 300 298 297 296 295 295 295 294 293 292 290 289 289 288 287 287 287 288 287 287 286 286 285 286 286 285 285 285 285 285 285 285 285 285 285 285 285 285 285 284 284 283 284 283 283 284 283 282 281 282 284 283 282 283 282 282 281 279 276 277 279 280 280 281 282 282 282 281 281 281 282
291 291 291 291 293 295 296 297 300 300 299 299 299 298 298 296 296 295 294 293 293 292 291 290 289 288 287 287 287 286 287 287 286 284 285 285 285 284 284 284 284 284 284 284 285 284 284 285 285 284 284 284 285 284 284 283 283 283 283 283 282 282 280 280 283 283 282 283 281 278 277 277 278 276 277 276 279 280 280 280 282 281 280 281 281
292 292 292 292 293 294 295 295 298 300 299 299 298 297 296 295 294 294 293 292 292 291 290 290 289 287 286 285 285 284 284 284 283 283 283 283 283 283 284 284 284 284 284 284 284 285 284 284 284 284 284 284 284 284 284 284 283 283 283 282 282 281 282 281 280 283 282 283 282 280 279 276 276 277 275 275 276 278 278 280 279 280 279 280 280
291 292 292 292 292 293 294 293 297 299 298 297 295 294 293 293 293 293 292 292 291 290 290 290 288 287 287 286 285 284 283 282 282 282 283 282 283 283 283 283 284 284 284 284 284 284 284 284 284 284 284 284 284 284 283 283 283 283 283 283 282 284 281 280 279 280 280 281 281 281 281 279 277 274 275 275 272 274 277 278 277 279 278 278 279
291 291 292 293 293 294 294 293 296 299 297 296 294 292 291 290 291 291 291 291 290 289 289 289 287 286 285 285 285 284 283 282 282 282 283 283 283 283 283 283 283 284 284 283 284 284 284 284 284 284 284 283 284 283 282 282 283 283 283 282 282 281 281 280 278 278 278 279 280 279 280 279 278 278 276 275 276 274 274 276 276 278 278 277 278
292 291 292 292 292 293 294 293 295 297 296 295 292 291 291 290 290 290 290 290 289 289 289 287 287 286 285 284 283 283 283 283 283 284 283 283 282 282 283 282 283 283 283 283 283 284 284 284 283 283 283 283 283 282 282 282 281 281 281 282 281 281 281 280 279 278 278 278 277 278 277 276 276 277 276 276 275 273 273 274 274 276 276 275 277
291 292 292 293 293 293 293 293 293 294 294 294 291 290 290 290 290 290 290 290 289 289 289 287 286 286 285 284 283 282 283 282 282 282 282 282 282 282 282 282 282 282 282 282 283 283 283 283 282 282 282 282 282 281 281 281 281 280 280 280 280 280 280 280 279 278 278 277 277 277 277 276 276 276 276 274 274 275 274 273 274 273 273 275 277
291 291 292 293 293 293 292 292 292 292 293 293 290 290 290 290 290 289 289 289 289 288 287 286 285 285 284 284 283 282 282 282 281 281 281 282 281 281 281 281 282 282 282 282 282 282 282 282 282 282 282 282 282 280 280 280 280 280 280 280 279 279 279 279 280 279 278 278 277 277 277 277 277 276 274 275 274 273 273 273 273 274 274 274 274
290 290 290 291 290 290 291 291 291 291 292 292 290 289 289 290 290 289 288 288 288 286 285 285 285 284 284 284 283 283 282 282 282 281 282 281 281 281 281 281 281 281 281 281 281 281 281 281 281 281 281 280 280 280 280 280 279 279 279 279 279 279 279 279 278 277 277 277 277 277 277 277 277 276 277 276 275 275 275 273 273 274 273 274 276
290 290 290 290 291 290 290 290 290 290 291 291 290 290 290 289 289 289 288 287 286 285 285 285 284 284 284 283 283 283 283 282 282 282 282 282 282 281 281 281 281 281 280 280 280 280 281 280 280 280 280 280 280 279 279 279 279 279 279 278 278 278 278 278 278 277 277 277 276 276 276 277 277 276 277 276 276 275 275 273 273 275 273 273 273
290 290 290 290 291 290 290 290 290 289 291 291 290 290 289 289 288 288 287 286 285 285 285 284 284 284 283 283 283 283 283 283 282 282 282 283 282 282 281 281 280 280 280 280 280 280 280 280 280 279 279 279 279 279 279 278 278 278 278 278 278 277 277 277 277 277 276 276 276 276 276 276 276 277 276 277 276 275 274 274 273 273 273 273 274
289 289 290 290 291 290 290 290 290 289 290 290 290 290 289 289 288 287 286 285 285 285 285 284 284 283 283 283 284 283 283 283 283 283 282 282 282 281 281 280 280 280 280 280 280 280 279 279 279 279 279 279 279 279 280 279 278 278 278 278 278 277 277 277 276 277 277 276 276 276 276 276 276 276 275 276 276 276 275 274 274 272 272 273 271
289 289 289 290 290 290 290 289 289 289 289 289 289 289 289 289 288 287 286 285 285 285 284 284 284 284 283 283 283 283 283 283 283 283 281 281 281 281 280 280 280 280 280 280 279 280 279 279 279 278 278 278 278 278 278 278 277 277 277 277 278 279 277 276 276 276 276 275 275 275 276 275 276 275 275 275 275 276 276 275 275 273 272 269 272
288 289 289 289 289 289 289 289 289 288 288 289 289 289 289 288 287 286 285 285 285 285 284 284 284 284 283 283 283 283 282 282 282 281 281 280 280 280 280 280 280 280 280 280 280 279 279 278 278 278 278 278 278 278 278 277 277 277 276 276 276 276 277 276 276 276 275 275 275 275 275 275 274 275 274 275 275 274 275 274 274 273 274 272 268
289 288 289 289 289 289 289 289 288 288 288 288 288 289 289 288 287 286 285 285 285 285 284 284 284 284 283 283 283 283 282 282 281 281 280 280 279 279 280 280 280 280 281 281 279 279 278 279 278 277 277 277 277 277 277 276 276 275 275 275 275 275 276 276 276 275 275 275 275 274 275 275 274 274 274 274 274 274 273 274 273 274 274 271 272
287 287 288 288 288 288 288 288 288 288 288 288 287 287 288 288 287 286 286 286 285 285 285 285 285 285 284 284 283 282 282 281 281 280 280 280 279 279 280 280 280 280 280 279 279 278 278 277 277 277 277 277 276 276 276 276 275 275 275 275 274 274 275 274 274 275 275 274 273 273 273 274 274 273 273 273 274 274 274 274 273 274 274 273 272
288 288 288 288 287 287 287 287 287 287 287 286 286 286 286 286 286 286 286 285 284 284 285 284 285 285 284 283 282 282 282 281 281 280 280 280 280 280 279 279 280 280 279 279 278 278 278 277 277 276 276 276 276 275 275 275 275 274 274 274 274 273 273 273 273 274 275 274 273 272 273 273 273 273 273 273 273 273 274 274 273 274 273 273 273
288 288 288 287 287 286 286 287 287 286 286 286 285 285 286 286 285 285 285 284 284 284 284 284 284 284 283 282 282 281 281 281 280 280 280 279 279 280 280 280 280 279 279 278 278 277 277 277 276 276 276 275 275 275 275 274 274 274 274 273 272 273 273 273 273 273 273 273 272 272 272 272 273 272 273 273 273 272 272 274 273 273 273 272 272
288 288 287 287 286 286 285 285 286 286 286 285 285 285 285 285 286 285 285 284 284 284 284 284 284 283 282 282 281 281 281 281 280 279 279 279 279 279 279 279 279 279 278 278 278 277 277 276 276 275 275 276 275 275 274 274 274 274 274 274 273 272 272 272 272 272 272 273 272 271 272 272 272 272 271 271 272 271 272 271 272 272 271 271 272
288 288 287 287 287 286 285 285 285 285 286 285 284 285 285 285 285 285 284 284 284 284 284 284 283 282 282 282 281 281 280 280 280 279 279 279 279 279 279 279 279 278 278 278 277 277 276 276 276 276 276 276 275 274 273 273 273 273 273 273 272 272 272 272 272 272 271 271 271 271 271 271 272 271 271 271 271 271 271 271 270 271 270 271 271
287 287 287 287 286 285 284 284 284 285 285 285 285 285 285 285 285 284 284 284 284 284 283 283 283 282 282 281 281 281 280 280 279 279 279 279 279 279 279 279 278 278 277 277 277 276 276 276 276 276 275 274 273 273 273 273 272 272 272 272 272 271 271 271 271 271 271 271 270 270 270 270 270 270 270 270 270 270 271 271 270 271 271 270 271
286 286 286 285 285 284 284 285 285 285 285 285 285 285 284 284 284 284 284 284 284 283 283 283 282 281 281 281 280 280 280 280 279 279 278 278 278 278 278 278 277 277 277 276 276 276 276 276 276 275 275 274 274 274 273 272 272 271 272 271 271 271 271 271 271 271 274 270 270 270 270 270 269 268 269 269 269 269 270 269 269 270 270 271 271
286 286 285 285 285 285 284 284 285 285 285 285 285 285 284 284 284 284 284 283 283 283 283 282 282 281 281 281 280 280 280 280 279 279 278 278 278 278 278 277 277 277 276 276 276 276 276 275 276 275 275 274 274 274 274 272 271 271 271 271 271 271 271 271 271 271 271 270 270 270 270 270 269 269 269 269 268 268 269 268 268 269 270 270 270
286 286 285 284 284 284 285 285 285 285 285 285 285 285 284 284 283 283 284 283 283 283 282 282 281 281 281 281 280 280 280 279 279 279 279 278 278 278 277 277 277 277 277 276 276 275 276 275 275 275 275 274 273 272 272 271 271 270 270 271 271 271 271 270 270 270 270 270 270 270 270 270 270 269 269 269 268 268 269 269 269 269 269 269 269
285 285 285 285 285 285 284 284 284 284 285 285 285 285 284 284 283 283 283 283 283 282 282 281 281 281 280 280 280 280 280 279 279 279 278 278 278 278 278 277 277 276 276 276 276 276 276 276 275 275 275 274 273 273 272 271 270 270 271 271 271 271 271 271 271 270 270 270 270 270 270 270 270 270 270 269 269 269 270 269 270 269 269 269 269
285 286 286 285 285 285 285 284 284 284 284 284 284 284 284 283 283 283 282 283 283 282 282 281 281 280 280 280 280 280 279 279 278 278 278 278 278 278 278 276 276 277 277 277 277 276 274 275 275 275 273 273 273 273 272 271 271 271 271 271 271 271 271 271 270 270 270 270 270 270 270 270 272 274 276 275 274 275 270 267 268 269 269 268 267
286 286 287 286 286 285 285 284 284 284 284 284 284 284 283 283 282 282 282 282 282 282 282 282 281 281 281 281 281 280 279 278 278 278 277 278 278 278 277 276 276 276 276 276 276 276 275 275 274 274 274 273 273 272 274 277 276 272 271 272 271 271 271 271 271 270 270 270 270 270 271 275 276 277 277 278 278 277 277 274 270 269 268 268 265
287 287 287 286 286 285 285 284 284 284 284 284 284 284 283 283 282 282 282 282 283 282 282 282 281 281 281 281 280 280 279 278 278 278 278 278 278 277 276 276 276 275 275 275 275 275 275 275 274 274 273 272 272 272 277 279 279 278 273 271 271 270 270 271 270 270 270 270 270 270 270 273 274 276 274 277 277 277 277 277 277 277 276 270 265
289 288 287 286 286 285 285 285 285 284 283 283 284 284 284 283 283 283 283 282 282 282 282 282 282 282 281 281 280 280 279 279 278 278 278 278 277 275 275 276 276 276 276 275 275 275 275 274 274 273 273 273 273 275 279 280 281 280 277 272 271 270 270 271 271 270 270 270 270 270 270 270 270 270 269 269 273 276 276 276 276 277 277 278 278
289 288 288 288 288 287 286 286 285 285 284 284 285 284 284 284 284 283 283 282 282 282 282 282 282 281 281 281 280 280 279 279 278 278 278 277 276 276 276 276 276 276 275 274 275 275 274 273 273 273 272 272 272 277 280 281 281 282 281 275 270 270 270 270 271 271 270 270 269 269 269 270 270 274 273 270 269 269 274 275 276 276 277 278 278
289 289 288 288 288 287 287 286 286 286 285 285 285 285 285 285 284 283 283 282 282 282 282 282 282 281 281 280 280 280 279 279 278 278 277 276 276 276 276 276 276 275 275 274 274 274 274 273 273 273 272 272 272 276 280 281 282 282 282 278 271 271 271 270 271 271 270 270 270 269 269 269 269 269 270 270 270 268 268 269 269 270 271 274 277
288 287 287 288 288 288 287 286 286 286 285 285 284 284 284 283 283 283 282 282 283 283 282 282 282 281 281 280 280 280 279 279 278 278 277 276 276 276 276 276 276 275 275 274 274 274 274 273 273 273 272 272 271 276 280 281 282 283 283 281 272 272 272 272 272 271 271 270 270 270 269 269 269 268 269 270 268 268 266 267 267 269 271 273 273
287 288 288 288 288 288 287 287 286 286 285 285 284 284 284 283 283 283 283 283 283 282 282 282 282 281 281 280 280 280 279 279 278 277 276 276 276 276 276 276 275 275 275 275 274 274 273 273 273 272 272 271 271 277 280 281 282 283 283 279 273 273 272 272 271 271 271 271 271 271 270 269 268 268 271 275 274 270 268 266 268 270 272 274 275
289 289 289 289 289 288 288 287 286 286 285 285 285 284 284 283 283 283 283 283 283 282 282 282 282 282 281 281 280 280 279 278 278 277 277 277 277 276 276 276 274 275 275 274 274 274 273 273 272 271 271 271 271 275 280 281 282 283 282 275 273 273 272 271 271 271 271 271 270 270 270 269 268 268 272 275 277 277 272 271 271 272 273 273 272
287 287 287 287 287 287 287 287 286 285 285 285 285 284 284 283 283 283 283 283 283 282 283 283 282 282 281 281 280 280 279 279 278 277 277 277 277 277 276 276 275 274 274 274 274 273 273 272 272 271 271 271 270 272 279 281 282 283 282 274 273 273 272 272 271 271 270 270 270 272 271 269 269 269 273 276 277 276 274 274 274 273 272 271 272
286 287 287 287 287 287 287 287 286 285 285 285 285 285 284 283 283 283 283 283 283 283 283 282 282 282 281 281 280 280 280 279 278 278 278 277 277 277 277 275 275 275 275 274 273 272 272 271 271 271 272 270 269 270 278 281 282 282 281 274 273 272 271 270 270 269 270 269 269 271 273 273 271 271 275 276 277 277 274 274 274 273 272 271 272
285 286 287 287 287 287 286 286 286 286 286 285 285 285 285 284 284 283 283 283 283 283 283 283 282 282 281 281 280 280 280 280 279 279 278 277 277 276 275 274 273 273 273 272 272 272 271 271 270 269 268 269 268 267 271 280 281 282 283 275 272 271 270 269 269 268 267 268 268 268 271 276 277 277 276 277 278 279 276 275 275 273 272 272 273
285 285 286 287 287 287 287 287 286 286 286 285 285 285 284 284 283 282 282 283 283 283 283 282 282 281 281 280 280 280 280 280 280 279 279 277 276 276 274 272 272 271 270 270 271 270 270 270 268 267 266 267 268 267 268 277 281 282 283 280 273 272 271 269 267 267 267 266 266 268 268 273 277 278 279 278 279 279 279 277 275 274 274 274 275
285 285 286 286 286 285 285 284 284 285 285 285 285 285 284 283 282 282 283 283 282 282 281 281 280 280 280 280 280 280 280 280 279 278 277 276 275 274 274 273 272 270 269 270 269 268 268 268 266 265 265 266 267 270 266 272 278 281 282 283 275 272 272 268 266 266 266 266 267 267 268 271 275 277 278 279 280 280 280 278 276 278 278 278 275
285 284 284 286 285 284 284 283 282 283 284 285 285 284 283 282 281 282 282 281 281 280 280 280 280 280 279 279 280 279 279 279 278 277 277 276 273 272 272 271 270 269 269 268 268 267 266 266 266 266 265 265 265 266 272 269 274 279 282 283 282 276 277 271 268 267 267 267 267 267 269 272 275 276 278 279 279 280 279 278 279 278 278 278 273
281 282 282 283 283 281 280 279 279 280 282 284 284 282 281 281 282 281 280 279 279 279 279 279 279 279 278 278 278 278 278 278 277 276 275 275 273 272 270 270 269 269 268 268 268 267 266 266 266 267 267 266 265 265 268 273 271 275 279 282 283 282 279 274 270 269 268 268 268 268 269 274 275 276 278 278 279 279 278 279 279 278 277 276 266
282 281 281 282 281 279 278 277 277 278 279 281 282 282 280 281 280 279 279 279 278 277 278 277 277 277 277 277 276 277 277 276 276 276 275 275 273 270 270 268 268 268 268 269 269 268 267 267 267 268 269 268 266 265 264 268 273 274 276 279 281 282 282 281 275 272 270 269 271 273 274 275 276 277 278 278 278 279 279 279 279 277 275 266 263
279 278 279 279 279 278 278 276 273 273 275 275 276 280 279 277 276 277 277 277 276 276 276 277 276 276 276 276 275 275 275 276 275 275 276 276 274 271 272 270 268 269 269 269 270 268 267 267 268 269 269 270 268 265 265 264 267 271 273 276 278 280 280 281 280 275 275 275 275 275 276 276 276 276 275 275 274 274 277 277 276 275 265 262 261
279 277 277 278 279 278 276 276 277 273 272 271 271 273 271 270 271 273 273 274 275 276 276 275 275 275 272 274 275 275 274 273 273 273 273 274 274 272 272 270 269 269 269 269 270 269 269 268 268 269 269 269 266 265 264 263 263 264 266 269 272 275 278 280 279 278 278 276 275 275 275 276 276 277 277 276 275 274 273 273 269 265 261 258 258
275 274 274 275 276 277 275 273 275 273 271 270 270 271 270 270 268 270 269 271 273 275 276 275 274 273 273 273 275 272 273 273 272 273 273 272 272 272 272 272 270 270 270 270 269 269 269 269 269 269 269 266 267 265 264 264 264 264 265 267 268 271 273 274 275 276 277 276 275 276 277 275 275 274 274 272 270 269 268 266 264 261 259 259 262
276 273 274 276 273 273 272 272 272 271 270 270 270 270 269 271 269 267 269 271 271 271 271 270 269 269 272 271 273 273 274 274 273 271 273 274 274 272 272 273 274 272 272 272 271 271 271 271 270 270 268 267 267 267 267 269 266 269 267 266 267 268 270 272 275 277 275 275 274 273 273 273 272 270 269 268 266 263 263 262 261 258 256 255 255
273 272 271 271 271 272 272 272 273 271 271 271 269 269 269 269 266 266 270 272 270 268 268 269 268 270 269 268 269 270 270 271 271 271 270 270 270 275 274 272 271 274 276 277 276 271 270 266 268 269 268 269 269 269 273 274 274 274 275 275 274 273 274 273 274 278 277 273 272 271 271 271 271 270 268 267 266 265 264 262 259 263 260 256 256
273 273 271 271 271 271 272 272 272 270 269 269 269 268 268 267 268 267 269 270 269 270 270 270 268 270 270 269 268 269 269 268 269 268 268 268 268 269 276 277 277 275 275 276 277 278 278 276 270 267 269 275 276 276 276 276 276 276 277 277 277 277 276 276 276 274 274 273 271 270 270 270 270 270 269 269 268 266 265 263 263 260 259 260 261
Wind_Speed
5 7 7 7 7 6 6 5 5 5 6 8 8 8 8 9 9 9 8 9 9 9 8 9 10 8 7 7 8 6 6 5 7 5 6 6 6 7 7 6 7 7 6 7 8 8 8 7 8 7 6 7 8 7 4 5 5 6 6 7 8 10 8 6 4 2 9 6 6 6 7 5 6 9 9 8 7 6 6 8 7 8 8 8 8
6 6 6 5 6 6 6 6 7 9 6 7 9 9 7 8 9 9 8 8 7 8 8 6 4 6 10 7 8 6 5 6 7 6 6 6 7 7 6 6 7 7 6 6 7 8 8 8 8 7 7 7 7 6 6 6 6 6 4 9 6 9 6 5 5 1 4 5 6 2 2 2 4 8 9 7 6 6 6 8 7 8 8 7 7
8 7 6 7 7 7 7 6 6 7 8 7 8 8 7 7 7 8 8 7 5 6 6 6 7 6 7 7 7 7 5 4 5 5 5 7 7 6 6 6 7 7 6 5 7 7 8 8 7 6 6 6 8 8 7 8 6 5 5 7 7 4 6 6 9 4 4 2 1 4 1 1 1 5 4 5 6 6 6 8 8 8 8 6 6
14 13 11 8 8 8 7 7 7 6 7 7 7 8 7 6 5 6 6 5 6 6 8 8 10 11 9 9 7 7 8 6 7 6 6 8 9 6 6 6 6 7 5 6 7 7 7 8 6 7 7 6 7 8 7 7 6 5 5 4 5 7 5 7 7 7 4 2 1 1 1 2 1 2 3 3 2 5 7 6 6 7 7 7 6
14 11 10 10 11 12 10 8 7 8 8 8 8 8 6 7 6 7 7 7 7 9 10 12 13 12 10 9 10 11 7 7 8 7 5 5 6 7 6 5 6 6 5 6 7 8 6 7 8 7 7 6 6 8 8 6 5 4 4 5 5 8 5 4 8 7 9 4 5 3 2 3 0 2 4 1 3 3 5 6 7 9 9 7 7
16 17 16 13 11 8 8 8 9 9 9 8 7 7 6 6 6 6 6 7 8 10 12 12 12 14 11 11 9 8 8 7 8 10 6 6 6 3 6 5 5 6 6 7 7 6 8 7 7 8 7 7 7 7 6 6 6 6 4 5 7 5 9 7 5 6 8 10 8 4 1 3 2 1 2 1 5 1 3 6 6 7 6 7 6
7 8 9 12 11 11 11 10 10 11 8 7 6 7 6 7 7 7 8 8 8 10 9 10 11 11 13 11 11 11 11 3 3 4 7 5 5 6 6 5 4 7 6 6 6 6 7 7 8 8 7 6 5 7 8 7 5 4 3 6 5 4 6 8 7 4 6 8 7 8 10 6 3 3 0 1 2 3 4 4 4 8 5 5 5
14 15 14 13 13 15 15 12 10 11 9 8 8 7 8 8 8 8 7 9 8 8 8 8 11 8 9 9 9 9 10 9 6 6 5 6 7 6 6 6 5 6 7 6 6 6 7 8 7 7 7 6 6 7 7 5 6 5 6 5 6 6 6 8 5 2 6 2 3 6 6 6 6 7 2 1 1 1 5 4 2 8 6 4 3
15 15 16 16 16 15 12 12 9 8 9 10 9 8 8 8 8 8 9 8 8 8 9 5 6 11 11 10 9 6 10 9 6 6 7 6 9 6 7 6 6 6 5 6 5 6 6 7 7 7 7 6 7 7 5 5 6 6 6 7 8 7 6 5 8 6 5 3 4 4 5 5 5 4 3 3 2 1 4 2 5 4 4 3 4
11 13 13 13 13 12 10 8 7 8 7 7 7 8 8 8 9 10 9 8 9 8 7 8 6 9 11 11 14 10 9 8 7 8 7 6 9 6 6 6 6 6 5 5 6 6 6 6 7 7 7 6 6 6 6 6 5 6 6 6 6 8 5 7 7 6 6 4 4 3 4 2 4 4 5 4 2 1 1 4 3 5 7 7 5
11 11 10 10 9 9 10 12 10 6 6 9 8 8 8 10 10 10 10 9 8 9 8 8 8 8 11 13 15 14 11 11 10 8 7 7 9 7 6 6 5 6 5 5 5 5 6 5 6 6 6 6 6 6 6 6 6 7 6 6 6 8 7 8 7 6 6 6 5 6 6 5 4 2 2 2 2 1 2 3 3 2 3 7 4
10 10 10 10 9 8 8 10 10 9 8 9 8 8 9 10 11 11 9 10 8 8 9 9 8 7 9 13 14 14 14 12 13 13 10 10 9 9 6 6 5 5 5 5 5 4 5 6 5 6 6 6 6 5 5 6 6 5 6 6 6 6 6 8 7 7 6 6 5 5 5 5 5 5 2 3 4 1 1 3 4 4 3 4 6
11 11 11 11 13 13 13 11 10 10 11 11 11 10 10 10 12 13 11 9 9 9 11 9 8 9 10 12 12 11 11 11 11 11 10 10 9 9 8 8 6 6 5 6 4 4 5 7 6 6 6 5 5 6 5 5 5 5 6 6 6 7 6 7 7 5 5 6 6 3 5 5 5 2 4 4 2 3 3 1 2 1 3 5 3
11 11 12 12 13 12 13 13 12 11 12 12 11 11 10 10 11 13 12 8 8 9 11 10 9 9 9 10 11 11 10 10 9 11 10 9 8 10 9 9 8 8 7 6 6 5 4 5 5 5 4 5 5 5 5 4 5 6 5 7 7 6 6 7 7 5 6 4 4 6 5 5 3 3 3 4 3 3 1 1 2 3 2 5 3
10 12 13 14 14 14 14 14 13 12 13 12 11 11 11 11 11 12 12 9 10 11 11 12 10 9 9 9 10 9 10 9 8 8 9 10 8 9 7 6 8 7 7 6 5 5 5 5 4 5 5 5 5 5 5 5 5 6 5 6 6 6 6 6 5 5 6 5 4 5 5 5 5 3 5 3 2 2 3 1 2 5 6 2 3
11 11 11 11 11 12 12 12 12 12 12 11 13 12 12 12 12 11 12 12 12 12 11 12 11 9 9 10 10 9 8 7 7 6 6 7 9 9 8 7 7 7 6 6 5 5 6 6 4 5 4 5 5 5 5 5 5 6 6 6 7 3 6 6 5 6 5 5 4 3 5 4 3 4 4 4 4 3 4 3 4 2 1 5 4
11 12 12 12 10 11 12 13 12 12 12 13 14 13 14 13 12 12 10 10 11 12 12 12 12 11 10 10 9 9 10 10 10 9 9 7 7 7 8 7 7 7 7 5 6 4 5 6 6 5 5 4 5 4 5 5 5 6 6 6 6 4 5 5 4 5 4 4 4 4 5 5 3 3 3 4 3 3 3 3 2 4 2 1 3
10 9 9 12 13 14 12 12 13 14 14 13 13 12 12 12 12 13 12 14 12 12 13 12 14 13 11 10 9 10 10 9 9 10 8 9 7 7 7 8 8 7 7 6 6 6 5 5 6 5 4 4 5 5 5 5 6 6 6 6 4 5 5 3 3 4 4 4 4 3 3 4 2 3 4 3 3 3 3 3 3 2 2 4 1
10 11 11 12 13 13 13 13 10 10 10 11 10 11 11 11 11 12 14 13 14 12 11 10 12 10 10 11 11 10 8 8 7 8 8 9 10 9 9 8 7 7 7 7 7 6 6 5 5 5 5 5 4 5 6 6 6 7 6 6 4 4 5 4 3 4 3 4 4 4 3 3 3 3 3 3 2 3 3 2 2 3 3 3 2
11 11 11 12 11 12 12 13 13 13 11 10 11 10 12 12 12 10 9 9 10 11 12 13 12 11 10 9 8 9 9 9 9 10 10 10 10 10 9 9 9 7 7 7 7 7 7 7 5 5 5 4 5 5 6 7 7 7 6 6 4 4 5 4 3 3 3 4 4 4 3 3 2 3 3 3 3 2 1 3 3 3 2 2 2
12 11 11 11 11 11 10 10 10 9 9 10 11 13 13 11 12 12 14 13 13 12 12 11 11 11 12 13 12 10 11 9 9 9 10 10 9 9 9 8 7 7 8 8 7 7 7 6 6 6 6 6 6 6 5 7 7 7 6 5 4 4 5 3 4 3 3 3 3 3 3 2 3 3 3 3 2 2 2 3 3 4 3 1 1
10 10 9 10 10 11 10 9 9 11 11 12 11 10 12 13 12 12 11 12 13 13 13 12 11 11 13 13 12 10 10 9 10 10 9 9 9 9 9 8 9 8 8 8 8 7 6 6 6 6 6 5 5 6 6 6 7 7 5 4 5 5 4 3 3 3 3 3 3 4 3 3 3 3 3 2 2 2 3 4 2 4 2 1 1
10 10 10 10 10 11 11 13 13 14 12 11 10 12 12 12 12 12 13 13 12 12 11 12 12 12 13 12 11 11 11 11 11 10 10 10 9 8 8 10 9 8 6 7 8 7 7 6 6 6 7 6 6 6 5 6 6 7 6 5 4 4 4 4 4 4 3 3 3 3 3 3 2 3 2 2 2 3 3 4 2 1 1 1 1
6 7 7 8 8 9 10 12 13 13 14 16 14 13 12 13 13 13 14 13 11 12 12 12 12 12 12 12 12 11 12 12 12 10 11 10 9 9 8 8 8 7 8 6 6 7 6 7 7 7 7 6 6 6 6 6 7 6 6 5 4 4 4 4 4 4 3 3 3 3 2 3 2 3 2 2 2 3 3 3 2 1 1 2 2
8 10 9 8 9 12 13 12 12 12 12 12 13 14 13 13 12 13 12 11 12 11 12 13 13 13 12 13 13 12 13 13 12 10 11 10 10 9 8 9 8 8 7 7 6 5 7 7 8 9 9 8 8 7 7 6 5 5 5 5 4 4 4 4 4 3 4 3 3 3 3 3 3 3 2 2 3 3 3 3 2 2 3 3 3
9 9 10 14 13 11 11 14 14 14 14 13 13 12 12 12 13 11 12 12 12 11 12 13 13 14 13 14 13 12 14 14 12 11 12 11 10 10 9 8 8 9 8 7 8 7 7 8 8 9 9 8 8 7 7 7 6 5 5 4 4 4 4 4 3 3 3 3 3 3 4 4 4 4 3 3 3 3 3 3 3 3 4 3 3
11 11 9 7 11 17 16 13 13 12 12 12 13 13 13 12 13 12 11 12 11 11 12 12 12 13 12 13 13 13 12 12 11 11 10 9 10 10 10 10 8 9 9 9 8 8 7 7 7 8 8 8 7 6 6 6 6 5 5 5 4 4 4 3 3 3 3 3 3 3 4 4 4 4 4 4 4 3 4 4 4 4 4 4 4
7 9 13 17 16 12 13 16 14 14 12 11 12 12 13 13 14 12 11 11 10 12 12 12 12 12 13 13 12 10 11 11 9 9 10 10 10 10 9 8 8 9 10 10 10 10 8 6 7 6 6 7 7 7 6 6 6 6 6 5 5 5 5 4 3 3 3 3 3 3 3 4 4 4 4 4 4 4 3 4 5 4 4 4 4
11 15 15 14 14 16 15 14 14 12 14 13 11 11 10 10 10 10 10 12 11 11 12 12 12 13 13 11 10 9 8 9 9 9 10 10 10 10 9 9 9 9 8 9 8 8 8 8 7 6 7 6 7 7 6 7 7 7 6 6 6 6 5 5 4 3 3 3 3 3 3 3 4 6 9 7 7 7 5 4 4 4 4 4 4
14 16 16 16 15 12 12 12 12 15 15 14 14 13 13 13 12 11 11 10 10 12 13 13 14 13 10 10 11 10 10 9 10 11 11 10 10 10 10 9 10 9 9 8 8 8 9 9 9 7 7 6 6 5 7 12 9 7 7 6 6 6 5 5 5 4 4 4 5 4 4 7 8 8 8 8 7 7 7 6 6 5 4 4 5
14 12 13 13 12 11 12 14 16 16 16 15 13 12 11 11 11 11 11 10 10 11 11 11 11 9 9 9 10 10 10 11 11 10 9 11 11 9 9 9 9 9 9 9 8 10 9 8 9 9 9 7 6 5 12 15 15 14 8 7 7 6 5 5 5 6 6 6 5 4 4 5 6 6 4 7 8 8 8 8 8 8 7 7 5
14 14 12 12 14 14 16 18 17 15 14 13 13 13 12 13 13 13 12 11 11 11 12 11 10 10 10 11 11 10 11 11 11 11 10 9 8 8 9 9 9 9 8 7 9 10 9 8 7 7 8 7 7 9 15 15 15 16 12 8 6 6 6 6 6 6 6 6 6 5 5 5 4 4 4 3 5 8 9 9 9 9 10 11 9
15 14 15 16 16 15 15 13 11 13 14 13 11 11 13 13 12 11 10 12 13 12 12 11 10 10 10 10 10 11 11 10 10 10 9 9 10 9 10 10 11 9 7 8 10 8 8 7 7 9 8 7 7 12 16 17 16 16 16 11 6 6 6 6 6 7 7 7 6 6 6 5 5 9 6 4 5 4 7 10 11 11 11 12 11
9 9 9 8 7 7 9 12 13 12 12 11 12 12 9 8 8 8 11 10 11 11 11 11 10 10 10 10 11 10 10 10 9 9 9 9 10 12 10 8 7 7 8 7 7 8 7 9 9 9 9 8 8 12 17 17 17 17 17 13 6 7 6 6 7 7 7 8 7 7 7 6 5 4 4 5 5 4 4 4 5 5 5 9 12
6 6 6 8 10 10 10 10 10 11 11 11 10 10 9 9 10 10 10 10 10 10 10 10 10 10 9 9 11 10 11 10 10 9 10 10 11 9 9 9 9 9 10 11 10 10 10 9 8 8 8 8 8 13 17 18 17 18 18 14 7 6 6 6 7 7 8 8 7 7 7 7 5 5 5 6 5 5 4 5 5 7 7 7 8
6 8 10 11 12 13 14 13 9 10 11 12 12 11 11 11 10 11 10 10 10 10 10 10 10 10 11 12 12 11 11 9 10 10 10 11 11 11 11 9 7 7 6 6 6 7 9 9 8 8 8 9 8 15 17 18 18 18 19 9 8 8 7 7 7 8 8 7 7 7 6 6 5 6 8 13 11 7 5 6 8 8 8 8 7
10 10 9 7 7 7 7 8 10 11 12 11 10 11 11 10 11 11 12 11 11 12 13 13 13 13 13 12 12 12 11 10 10 10 11 12 12 11 9 7 8 9 9 10 10 9 8 8 9 9 10 10 8 14 18 18 18 19 15 7 8 7 7 8 8 8 8 7 7 7 7 6 6 7 10 14 15 13 7 9 9 9 8 6 6
4 3 4 5 6 7 8 10 10 10 10 9 10 12 11 11 11 10 10 10 11 14 14 13 12 11 11 10 10 10 11 11 11 13 13 12 10 7 8 8 10 10 11 12 9 8 7 8 9 10 11 11 10 12 18 18 19 20 15 9 8 8 8 8 8 8 7 7 7 12 9 7 7 8 12 16 16 12 8 9 9 8 8 7 6
4 6 6 6 7 9 9 9 10 11 10 11 12 12 11 11 10 11 10 11 13 14 12 12 11 9 9 10 10 11 11 12 12 13 12 12 11 11 8 7 9 8 9 6 6 8 7 7 8 9 7 10 9 10 17 19 20 20 15 8 8 8 8 9 8 8 7 7 7 10 16 13 10 10 16 17 17 13 8 8 9 8 8 7 5
5 4 5 7 8 9 8 10 11 9 9 11 11 11 11 11 9 8 10 13 15 13 8 8 9 10 10 9 9 11 12 12 14 12 9 10 7 6 8 9 8 7 7 6 6 7 9 9 7 7 8 10 9 8 10 19 19 21 20 9 8 8 11 11 9 8 7 7 7 7 11 17 19 18 18 18 18 18 11 9 8 7 6 8 2
6 6 6 7 6 7 8 7 7 9 9 10 10 10 9 8 8 9 13 15 10 7 9 9 9 9 9 10 9 11 13 12 11 11 10 8 8 9 7 7 8 7 6 5 7 7 8 8 6 7 7 8 9 9 9 17 19 20 21 16 10 12 11 9 8 8 8 8 8 8 7 13 18 19 19 19 19 19 17 10 7 6 6 6 7
6 6 7 7 7 7 7 6 6 9 9 9 10 10 9 9 9 12 15 9 7 8 8 7 8 9 10 10 10 9 10 10 8 7 8 8 7 7 7 8 7 6 8 8 6 6 7 8 6 6 8 9 7 9 7 13 19 21 22 24 12 13 11 8 7 8 8 8 9 8 7 11 18 19 19 20 21 20 20 11 7 12 14 15 7
6 6 4 7 6 5 5 5 4 6 7 8 10 10 8 8 10 14 7 6 6 7 8 8 8 8 9 9 9 10 9 8 8 9 10 9 7 8 7 7 8 8 9 9 9 8 7 8 7 8 8 8 8 8 14 11 17 21 23 24 23 13 17 10 10 11 11 10 6 6 7 13 16 19 19 20 19 20 17 10 16 17 14 15 5
5 3 4 5 6 5 5 3 3 4 5 6 9 9 8 9 13 4 5 5 6 6 7 7 7 8 7 8 8 9 8 7 8 8 8 9 8 8 7 8 8 8 8 9 9 8 7 9 10 10 8 9 8 8 11 17 15 21 22 23 24 24 20 12 10 10 8 6 6 7 7 14 16 18 19 19 19 17 13 18 17 17 15 10 3
6 5 3 5 8 8 7 5 3 4 5 6 7 10 8 10 4 5 6 7 6 6 7 6 7 7 8 7 6 7 8 8 8 9 9 9 8 7 8 7 7 8 8 10 10 8 10 11 10 11 12 10 9 8 9 13 19 19 21 21 23 25 25 23 13 10 8 7 9 12 14 16 17 18 20 19 17 19 22 20 18 13 9 3 3
5 4 5 6 7 7 8 8 4 3 4 4 4 7 9 3 1 4 5 6 7 6 6 7 7 7 7 6 7 6 6 7 7 8 9 9 10 9 10 8 8 9 9 10 11 9 10 10 11 12 12 11 6 7 9 8 9 12 14 19 21 23 24 26 21 10 15 17 17 17 17 17 17 16 13 10 9 8 13 14 12 11 3 4 3
7 5 7 7 7 7 7 6 6 2 3 4 4 5 4 2 3 3 5 5 6 7 6 5 6 6 5 6 7 7 7 6 6 6 7 7 7 8 8 8 9 10 10 10 10 10 10 10 11 13 11 7 6 7 7 6 6 6 8 9 10 12 18 20 17 14 13 12 14 14 11 13 13 18 18 16 12 8 8 8 4 3 4 4 4
4 4 5 5 6 7 6 5 4 2 3 3 4 4 4 4 3 3 4 4 5 5 6 6 6 5 7 7 8 9 9 7 8 9 8 8 7 8 10 11 12 12 12 12 11 10 11 12 12 11 9 8 9 8 8 9 8 8 8 8 9 10 11 11 12 10 8 8 8 11 14 10 11 10 11 7 5 6 7 6 6 4 3 4 4
5 3 4 5 5 6 5 5 2 2 3 3 3 2 2 3 4 4 4 4 3 2 2 2 3 4 6 5 6 6 7 7 7 7 8 9 10 10 11 11 10 8 10 12 11 10 11 10 8 9 9 9 9 11 10 7 10 11 11 10 10 12 11 11 12 12 7 6 5 6 7 9 8 8 7 6 5 5 5 5 4 4 3 3 3
3 4 4 5 6 6 6 5 2 2 3 3 2 1 0 0 2 3 4 5 4 4 3 3 3 4 3 4 4 5 4 5 6 7 7 7 6 6 7 7 7 5 11 13 9 9 6 4 7 8 6 10 12 7 3 13 16 18 21 22 20 19 17 13 12 17 11 8 9 9 9 9 9 8 8 8 7 6 6 5 5 5 5 4 4
5 6 4 5 4 4 5 5 3 1 2 2 2 0 0 2 1 0 1 3 4 4 3 3 3 4 4 4 3 4 4 3 4 4 4 5 6 5 9 12 11 7 8 11 15 17 14 10 8 8 7 14 17 16 14 13 15 18 20 22 22 22 21 20 18 11 12 11 9 10 10 9 9 9 9 10 8 7 7 7 6 6 5 5 5
Wind_Direction
173 176 177 176 181 185 182 163 157 155 157 152 147 151 156 149 148 147 147 141 139 137 135 135 129 112 86 96 102 93 91 82 73 61 63 63 65 66 67 70 73 76 72 83 89 90 86 88 84 72 73 79 82 82 82 73 60 74 85 60 68 69 39 13 10 47 107 79 68 79 65 43 73 75 64 53 46 37 37 40 27 29 23 21 11
156 179 186 177 182 186 175 173 163 161 174 163 157 162 162 156 153 150 152 153 148 142 137 128 109 130 131 124 114 102 98 96 92 67 71 66 64 65 68 69 73 74 74 81 85 92 94 86 82 87 88 88 87 86 73 65 57 48 61 71 41 76 59 14 346 73 33 129 127 81 32 13 61 63 63 49 46 39 41 43 30 29 22 13 7
179 183 177 182 184 182 176 181 180 174 169 171 162 160 161 162 156 154 154 151 135 122 121 117 104 87 106 118 114 101 51 69 84 86 78 78 65 62 64 68 74 73 74 81 90 87 91 93 89 88 78 92 88 70 64 59 52 57 48 102 91 58 86 34 25 32 132 123 116 85 17 6 301 15 20 44 40 40 39 39 32 25 14 11 6
186 184 183 181 181 182 181 187 183 172 170 167 166 162 162 162 157 145 136 124 117 105 105 100 98 93 81 98 85 91 116 95 83 72 73 75 66 60 56 66 70 79 77 86 87 84 90 93 95 85 77 69 89 92 76 70 57 52 61 56 97 75 42 40 33 34 82 113 37 98 170 120 359 333 2 298 26 60 43 38 31 23 8 6 8
178 177 181 182 184 189 185 183 180 177 176 170 168 164 161 161 152 143 134 126 117 123 123 121 109 98 101 92 100 96 82 97 93 67 61 78 84 62 59 62 77 83 80 80 87 89 86 92 90 86 85 76 86 87 80 75 67 64 63 74 59 114 81 80 34 37 46 33 138 102 38 37 177 262 3 291 353 26 14 31 27 22 4 2 7
182 182 183 183 180 174 183 188 190 178 178 173 165 156 151 145 137 131 123 125 132 136 140 134 130 131 132 128 127 120 120 125 125 130 117 101 102 99 67 63 80 81 76 81 84 91 88 88 91 91 85 79 76 88 93 82 68 68 46 86 79 58 115 92 73 30 49 43 49 75 138 164 179 253 87 307 339 83 359 25 23 20 360 353 356
186 182 175 175 183 181 187 190 192 179 178 162 155 149 146 143 141 141 140 133 139 144 147 136 134 141 141 140 139 139 131 91 87 96 117 111 102 91 85 65 65 85 74 79 84 87 90 84 85 86 88 88 89 89 81 79 74 67 58 72 73 96 94 96 97 98 48 40 40 55 61 56 95 118 177 95 357 321 14 17 351 357 357 339 347
182 185 185 185 182 183 185 187 189 182 164 157 155 150 149 150 145 145 142 143 150 153 150 153 139 138 127 128 130 133 131 136 139 124 110 117 100 94 90 75 65 69 83 76 79 84 89 86 89 91 90 83 85 80 90 93 92 72 71 85 82 68 87 110 100 47 105 64 34 65 67 59 58 61 80 146 146 271 308 331 9 339 336 316 332
182 180 185 185 185 188 181 182 187 174 166 164 162 155 148 147 145 143 146 150 153 158 151 150 145 139 133 129 116 112 122 126 132 122 116 116 102 92 89 84 75 65 69 81 76 81 82 93 91 91 90 87 87 87 81 80 84 90 80 72 75 68 69 93 93 80 82 128 114 65 70 72 66 69 50 65 120 68 296 348 315 317 307 303 330
190 191 184 184 185 183 179 165 171 180 164 152 151 148 149 149 149 151 152 158 157 154 151 140 142 137 133 136 130 133 130 126 131 126 121 121 107 106 101 94 90 83 71 73 81 75 85 86 90 93 93 93 90 97 97 87 84 83 83 94 94 89 75 80 96 99 88 81 81 130 92 52 46 30 30 34 25 101 168 288 319 338 342 311 325
185 183 185 185 178 171 164 172 175 164 159 154 154 157 154 153 153 156 159 156 159 154 147 145 144 150 138 143 138 140 141 138 134 129 129 125 121 119 112 109 100 97 92 76 77 88 86 87 94 92 92 94 98 98 102 105 99 96 96 91 85 96 92 93 86 77 81 73 65 76 91 104 142 127 142 83 120 120 12 303 299 280 266 304 289
176 174 176 170 161 169 167 171 170 167 162 161 158 158 159 158 157 156 162 162 158 154 144 144 145 147 144 144 143 146 148 147 145 146 150 141 137 133 130 117 107 99 96 97 91 94 102 94 94 96 96 103 100 108 104 104 104 103 97 96 95 90 93 90 92 92 87 86 77 79 87 95 84 112 156 135 121 167 149 261 283 307 307 238 285
176 180 173 176 176 172 178 175 169 171 174 168 166 164 162 161 162 159 168 168 161 158 149 147 145 149 153 147 144 145 147 147 148 145 153 146 145 143 144 134 132 122 128 120 125 122 119 111 108 111 108 106 112 104 107 106 110 104 103 98 97 93 95 97 96 99 105 104 111 93 99 83 87 93 108 121 118 133 130 90 274 211 241 299 288
181 179 181 181 179 178 178 176 178 173 174 172 168 166 165 164 166 166 168 167 162 156 151 147 150 151 154 150 147 148 149 152 154 151 155 149 151 149 149 149 149 149 149 145 150 130 107 112 114 109 111 112 111 112 112 113 111 107 105 100 95 99 93 92 98 100 89 101 108 97 85 91 93 96 99 96 120 100 90 102 296 301 216 270 282
180 183 186 183 182 178 177 178 179 178 173 170 170 168 166 167 169 169 164 167 163 161 153 151 152 154 157 155 152 151 152 153 156 156 153 150 154 145 145 146 144 151 149 145 139 128 124 120 122 119 120 118 119 115 113 107 108 102 97 101 92 93 94 96 96 98 95 89 84 101 102 86 92 92 96 93 116 131 144 165 97 6 341 290 309
184 187 186 187 181 177 177 179 179 177 175 172 173 171 171 172 171 172 171 166 165 161 160 156 156 158 159 159 158 151 146 142 142 148 152 151 150 149 149 149 147 140 138 135 141 137 137 129 122 122 125 122 119 123 121 113 113 109 101 93 92 87 100 97 102 94 94 96 101 101 90 96 100 96 93 100 88 103 100 104 100 97 79 325 315
186 188 185 181 178 184 182 178 177 179 178 179 178 177 175 168 169 172 173 167 165 166 161 161 158 160 167 162 156 153 154 159 161 160 156 149 144 145 145 148 142 142 141 141 141 138 135 135 132 133 130 127 122 121 121 118 114 107 106 100 97 96 100 109 106 103 111 103 90 98 114 114 107 101 88 90 93 79 84 99 114 138 140 144 320
190 187 185 184 183 181 181 184 182 181 179 177 180 175 173 171 173 172 173 172 171 166 165 164 163 165 166 165 163 161 160 160 157 156 151 143 142 138 138 143 156 152 143 144 142 140 137 136 133 135 137 130 130 129 126 124 114 100 100 94 106 107 103 94 107 117 118 107 107 91 103 104 116 96 107 100 88 97 89 93 103 110 139 142 211
185 189 185 186 187 186 182 181 180 182 182 180 172 171 173 175 177 178 179 177 171 168 164 165 166 165 168 167 164 159 157 153 152 151 150 151 152 154 156 151 139 145 144 146 145 143 140 137 138 141 141 141 140 138 136 126 116 109 101 106 107 112 112 111 122 120 130 111 108 102 106 114 119 111 99 84 74 79 73 87 88 89 74 124 145
192 192 191 188 187 185 181 177 178 179 179 180 175 175 179 176 175 179 176 172 168 167 167 168 170 162 162 158 161 159 156 157 159 158 161 161 160 156 152 153 159 150 152 148 147 149 148 145 150 149 151 155 151 147 138 127 115 109 117 116 126 120 118 123 110 106 118 117 119 111 113 126 137 108 89 75 77 68 93 81 85 83 72 95 121
196 192 188 184 184 181 181 180 178 176 180 179 180 183 180 174 179 179 176 175 173 171 167 168 163 166 161 167 164 161 160 157 159 167 161 161 158 158 159 155 144 159 154 155 155 154 152 151 154 163 166 170 159 146 137 125 116 118 116 124 127 124 128 131 119 105 115 123 129 120 119 135 136 105 109 100 83 91 98 89 99 93 76 43 105
193 190 183 182 181 179 175 174 175 178 184 185 185 180 181 182 181 178 178 180 174 172 172 165 168 165 168 166 165 161 158 158 163 165 164 161 162 161 156 152 163 162 160 160 159 154 153 157 162 169 174 176 164 137 131 122 123 122 128 130 135 132 131 143 130 136 144 142 134 121 117 122 129 123 129 119 143 114 114 95 86 102 97 99 301
190 185 183 184 184 180 180 179 180 185 185 182 182 187 185 182 179 182 181 185 178 172 168 165 166 169 171 167 163 163 160 164 165 168 167 166 163 158 159 161 162 161 163 164 161 156 157 162 166 171 177 179 158 134 131 126 128 135 140 141 143 144 149 155 154 163 159 147 122 129 143 133 137 116 149 159 145 125 130 118 122 122 130 237 217
183 182 179 181 176 172 174 184 186 188 187 188 188 186 184 184 184 181 187 179 175 172 169 168 168 171 167 164 168 163 164 168 171 172 170 169 163 162 162 162 160 158 162 161 153 157 158 169 173 173 178 171 146 137 133 134 139 142 141 145 148 151 159 164 162 165 161 151 146 133 160 153 152 141 182 157 145 141 133 135 139 185 167 207 222
182 182 178 171 176 184 191 190 191 193 193 190 189 189 185 186 182 184 184 178 175 174 171 172 170 167 169 171 171 170 171 173 173 172 173 167 165 161 164 163 157 163 165 154 158 160 171 179 182 176 177 168 155 148 141 138 138 139 141 144 154 158 162 164 167 169 167 152 161 167 188 170 167 155 197 169 165 149 157 150 166 203 198 215 209
184 179 177 188 189 187 189 193 193 193 192 190 190 189 187 185 187 182 179 179 180 175 176 170 171 170 174 177 175 174 177 176 173 173 172 169 166 165 164 164 165 164 161 167 165 174 182 189 189 185 184 152 140 145 145 145 143 142 141 149 156 161 163 159 160 165 161 173 172 187 193 188 177 172 207 196 173 173 172 180 195 215 210 207 210
187 185 186 179 191 199 197 193 195 192 192 193 190 188 188 185 184 185 182 177 176 176 176 174 174 175 174 181 180 181 176 175 175 173 168 169 170 167 166 167 169 167 167 169 178 181 191 192 189 181 173 152 146 145 144 145 146 149 153 156 163 164 166 163 163 163 172 180 187 193 202 196 195 193 190 192 185 190 179 208 210 212 214 196 220
180 183 189 198 201 195 194 195 190 192 189 192 194 191 188 186 185 182 177 176 176 178 177 177 174 177 182 184 182 176 175 174 170 169 172 171 168 168 169 165 163 170 177 180 181 186 184 186 188 186 166 150 147 150 152 153 154 157 159 164 167 171 170 170 168 176 184 194 195 203 201 207 199 207 193 205 179 189 199 207 224 198 209 204 219
190 202 202 198 196 199 198 194 194 184 188 189 188 190 188 187 183 181 177 182 175 176 177 178 178 183 187 180 171 173 170 168 170 171 172 173 172 170 168 168 175 179 182 183 180 177 176 182 186 178 150 143 156 164 164 169 165 166 165 170 175 174 173 176 187 197 207 202 210 204 212 215 215 219 218 205 193 195 180 206 229 189 209 213 226
205 207 205 203 201 192 194 192 190 191 188 186 188 189 188 183 181 177 178 178 170 183 181 184 187 188 178 172 172 171 173 170 173 178 177 173 173 173 171 173 182 184 182 179 180 184 187 181 175 171 163 163 173 165 177 178 175 167 169 169 173 178 178 181 189 208 221 221 218 220 222 226 231 229 227 220 222 241 238 197 193 187 209 213 221
216 213 209 204 194 192 187 191 197 194 192 189 188 185 180 180 178 177 177 175 175 180 188 189 190 182 174 170 173 178 173 179 181 175 176 176 176 173 174 181 184 184 183 180 180 187 191 186 179 173 172 176 176 177 186 191 188 180 167 174 177 182 179 185 197 202 216 219 229 228 225 238 235 233 226 227 236 241 243 247 248 241 217 194 201
217 214 207 199 196 193 193 197 195 192 187 184 183 181 179 186 180 179 175 167 175 182 186 187 186 180 177 177 180 176 179 184 178 183 180 177 171 172 181 186 185 187 186 174 190 195 188 184 177 177 181 183 183 187 194 197 193 189 177 176 179 178 183 193 201 209 215 215 221 228 231 219 220 213 207 225 242 243 244 251 254 253 254 255 249
214 209 204 203 199 197 197 193 186 188 188 187 176 174 188 185 180 178 163 172 180 182 183 184 184 184 183 180 179 181 185 183 186 181 176 174 177 182 187 187 193 188 172 187 195 186 192 184 184 182 189 190 191 195 199 200 198 193 187 177 182 180 185 197 204 211 214 217 215 217 226 224 213 221 215 200 200 225 252 259 257 256 257 257 258
216 207 203 198 187 189 190 191 191 187 181 172 178 183 180 171 165 160 173 177 178 182 183 185 182 186 183 180 183 184 187 187 181 179 176 181 184 193 192 189 181 175 185 188 191 196 192 194 193 192 191 193 195 201 201 201 200 196 193 180 183 184 190 198 208 212 216 216 214 212 214 224 216 210 210 210 210 211 223 251 270 274 263 265 264
190 176 174 181 186 186 185 183 182 174 167 162 170 169 157 155 161 166 172 174 184 183 185 184 187 187 181 181 184 187 189 186 182 179 181 188 193 193 189 190 186 187 185 191 193 195 201 197 198 192 192 198 204 201 203 203 201 199 199 191 177 186 190 204 213 218 222 220 218 216 214 219 216 215 212 207 208 216 213 234 249 253 251 243 244
174 180 192 185 186 185 183 184 165 161 168 170 171 163 161 169 163 169 171 177 179 187 192 188 192 189 188 188 187 189 188 184 181 182 186 193 196 197 194 187 183 190 198 197 209 206 202 201 200 193 193 207 207 204 206 205 203 202 202 191 175 189 195 205 215 220 222 224 219 216 217 222 220 226 226 231 224 204 209 227 239 245 244 240 230
195 191 193 186 177 170 157 144 157 166 166 173 161 160 162 160 167 176 176 179 182 192 196 197 198 194 193 190 188 186 187 184 184 186 194 199 198 199 197 180 188 196 195 203 207 204 202 200 200 200 200 209 206 207 207 205 204 203 200 188 182 189 200 206 219 217 222 223 220 213 217 218 226 234 235 239 237 227 212 222 233 240 231 221 233
138 119 121 131 136 130 144 149 155 165 165 154 155 159 161 167 176 174 175 183 189 202 203 199 199 195 191 185 184 184 187 188 188 196 200 204 202 199 198 185 192 195 203 208 203 201 206 203 204 209 206 203 211 208 208 206 206 206 200 188 189 192 205 212 218 220 216 225 222 221 214 219 227 235 238 239 235 231 234 235 237 235 228 234 242
146 155 144 136 139 142 143 143 149 160 162 156 155 157 160 173 176 179 182 189 202 209 200 198 197 186 184 185 187 189 191 191 196 202 201 201 199 199 192 184 204 206 215 203 196 206 210 211 213 215 212 213 219 212 211 209 207 208 205 183 188 194 207 219 213 221 221 219 231 230 230 229 228 233 237 238 235 231 232 234 239 235 242 248 245
89 83 124 130 128 119 134 151 165 161 147 148 151 158 169 173 179 173 186 203 211 206 191 191 190 189 186 186 188 191 195 196 202 203 199 203 195 181 187 193 202 205 210 199 200 210 215 221 213 211 216 218 220 220 216 214 210 210 208 185 187 189 214 216 211 212 215 228 222 226 232 234 235 235 233 234 235 233 232 236 228 229 245 263 232
102 108 111 112 116 129 143 148 135 135 139 144 147 157 171 175 167 180 205 213 203 182 187 190 183 182 186 190 192 195 198 203 201 201 198 196 191 195 184 185 199 201 202 208 207 215 223 232 217 222 223 229 221 222 223 218 216 214 212 196 194 206 215 209 207 208 214 219 222 221 215 226 234 238 237 234 235 237 239 236 216 230 243 247 249
76 91 103 104 99 100 100 103 127 137 144 147 152 162 173 167 179 200 213 197 172 179 172 172 178 185 190 191 193 198 200 202 197 184 187 198 195 186 189 192 187 189 204 217 216 220 227 238 233 226 229 233 230 228 222 227 224 221 217 213 198 213 204 197 204 216 218 221 220 215 212 220 230 237 240 239 237 238 241 239 233 247 257 262 277
90 78 66 103 105 111 120 125 134 141 148 155 155 164 167 171 189 212 189 159 168 160 167 174 180 185 189 191 193 193 195 192 193 191 191 199 183 186 189 179 184 193 205 215 220 219 225 239 243 238 234 234 231 234 228 225 229 229 226 222 217 206 210 201 204 219 217 221 209 213 215 220 228 235 240 240 239 239 242 240 245 252 254 267 272
48 73 108 100 99 95 93 77 93 117 133 145 153 155 163 178 210 158 142 149 150 161 159 170 181 188 186 193 194 194 195 192 192 184 191 193 188 190 186 190 190 193 201 215 225 216 221 235 239 243 239 232 226 222 232 230 229 232 235 230 227 222 210 205 206 225 220 213 211 212 206 218 230 236 239 240 240 240 236 239 242 247 254 265 99
124 113 113 119 133 131 116 99 97 129 145 151 156 150 166 193 193 145 153 155 155 151 160 173 183 187 192 195 188 192 194 194 189 180 189 198 194 177 192 198 184 199 203 215 225 206 216 227 234 240 242 234 218 217 226 232 233 234 237 240 235 231 227 219 215 222 207 213 217 217 218 225 231 236 237 238 240 239 235 237 240 233 240 94 137
103 100 106 120 112 114 119 121 106 114 131 125 133 151 165 202 168 143 144 140 144 147 168 187 187 190 195 179 186 200 199 197 191 192 199 199 193 189 199 192 191 206 209 216 225 211 220 226 233 240 241 238 215 210 228 226 230 242 245 244 244 241 238 234 231 217 214 215 220 224 225 230 233 232 233 233 236 236 239 233 217 222 115 155 145
139 148 132 119 121 117 126 132 134 77 71 67 84 67 88 81 95 128 135 141 149 164 174 179 188 190 175 174 190 196 197 195 196 199 203 201 195 193 198 197 198 206 213 219 225 219 223 226 233 241 245 246 230 227 225 218 210 222 239 251 255 254 245 242 241 232 217 212 214 216 219 225 226 227 230 233 231 214 207 215 191 131 147 162 182
108 119 108 106 116 133 137 124 116 78 71 74 73 71 68 78 74 92 116 127 146 167 176 189 187 176 184 184 195 193 187 195 200 194 198 205 206 196 198 207 202 205 207 219 219 221 224 224 231 238 241 240 241 231 224 212 206 207 218 224 233 238 233 228 231 230 216 206 203 213 219 223 225 228 230 224 203 180 189 190 201 185 181 189 197
120 105 115 128 136 114 116 113 101 110 111 95 91 88 92 88 102 115 113 118 136 157 176 183 183 177 202 200 202 198 200 201 203 207 219 209 201 199 210 225 226 207 208 212 215 226 228 229 229 234 228 241 247 240 237 194 207 202 205 211 222 226 226 228 227 221 216 219 204 205 207 215 210 209 208 207 192 186 204 205 209 209 205 192 209
106 103 107 104 105 127 126 120 133 145 138 142 148 163 220 112 115 129 135 138 155 153 173 211 193 204 213 193 215 217 214 209 205 212 221 251 263 235 228 224 241 215 226 235 230 232 231 206 227 240 208 226 243 251 198 206 213 216 220 222 225 226 225 224 224 223 214 216 219 216 218 215 217 209 211 210 204 203 207 211 222 218 210 200 210
136 117 104 113 115 116 123 133 164 111 121 133 139 25 358 2 21 59 129 131 138 161 190 215 193 221 211 209 212 221 222 219 227 218 224 237 269 276 250 244 242 229 232 239 243 248 246 223 198 241 238 237 251 259 255 245 231 223 223 229 232 233 229 224 216 209 223 220 215 219 224 218 220 218 222 221 212 210 216 213 216 206 210 214 222